Location: Newark
(51.3318°N, 0.0053°E)
Time: 07:03:22
(UTC+00:00)

CAS-6 - Pass Details

Date: 04 July 2022
Orbit: 613 x 634 km, 97.9° (Epoch: 17 August)

Event Time Altitude Azimuth Distance (km) Brightness Sun altitude
Exits shadow 20:57:39 - 122° (ESE) 2,367 ? -5.3°
Reaches altitude 10° 20:58:43 10° 115° (ESE) 1,999 ? -5.4°
Maximum altitude 21:02:12 24° 62° (ENE) 1,300 ? -5.8°
Drops below altitude 10° 21:05:41 10° 9° (N) 2,000 ? -6.1°
Sets 21:08:11 0° 355° (N) 2,907 ? -6.4°
